Location: Unspecified
(0.0000°N, 0.0000°E)
Time: 12:06:23
(UTC+00:00)

ISS - Pass Details

Date: 16 March 2019
Orbit: 408 x 411 km, 51.6° (Epoch: 24 March)

Event Time Altitude Azimuth Distance (km) Brightness Sun altitude
Rises 18:37:07 0° 203° (SSW) 2,333 0.4 -7.1°
Reaches altitude 10° 18:39:19 10° 193° (SSW) 1,470 -0.8 -7.7°
Maximum altitude 18:42:22 35° 126° (SE) 677 -3.1 -8.4°
Drops below altitude 10° 18:45:31 - 57° (ENE) 1,502 -1.5 -9.2°
Enters shadow 18:45:34 - 57° (ENE) 1,520 -1.4 -9.2°
